| time (UTC) | temp F | wind direction | speed MPH | gust MPH | rain 1hr in | rain 24hr in | rain mn in | humidity % | barometer mb |
| 20260902043044 | 62 | 220 | 2.0 | 8.0 | 0.00 | 0.00 | 0.00 | 84 | 1010.3 |
| 20260902041541 | 62 | 52 | 1.0 | 6.0 | 0.00 | 0.00 | 0.00 | 82 | 1010.3 |
| 20260902040047 | 62 | 158 | 0.0 | 2.0 | 0.00 | 0.00 | 0.00 | 82 | 1010.3 |
| 20260902034540 | 61 | 145 | 0.0 | 5.0 | 0.00 | 0.00 | 0.00 | 84 | 1010.3 |
| 20260902033039 | 60 | 165 | 0.0 | 1.0 | 0.00 | 0.00 | 0.00 | 84 | 1010.3 |
| 20260902031544 | 60 | 163 | 0.0 | 2.0 | 0.00 | 0.00 | 0.00 | 84 | 1010.2 |
| 20260902030039 | 60 | 163 | 0.0 | 0.0 | 0.00 | 0.00 | 0.00 | 84 | 1010.1 |
| 20260902024540 | 61 | 163 | 0.0 | 2.0 | 0.00 | 0.00 | 0.00 | 83 | 1010.1 |
| 20260902023042 | 61 | 162 | 0.0 | 0.0 | 0.00 | 0.00 | 0.00 | 84 | 1010.1 |
| 20260902021537 | 60 | 162 | 0.0 | 0.0 | 0.00 | 0.00 | 0.00 | 86 | 1010.0 |
| 20260902020038 | 61 | 162 | 0.0 | 0.0 | 0.00 | 0.00 | 0.00 | 85 | 1010.1 |
| 20260902014536 | 62 | 162 | 0.0 | 0.0 | 0.00 | 0.00 | 0.00 | 83 | 1010.2 |
| 20260902013038 | 63 | 162 | 0.0 | 3.0 | 0.00 | 0.00 | 0.00 | 79 | 1010.2 |
| 20260902011536 | 63 | 170 | 0.0 | 3.0 | 0.00 | 0.00 | 0.00 | 78 | 1010.1 |
| 20260902010034 | 63 | 197 | 0.0 | 2.0 | 0.00 | 0.00 | 0.00 | 78 | 1010.1 |
| 20260902004535 | 63 | 207 | 0.0 | 4.0 | 0.00 | 0.00 | 0.00 | 78 | 1010.1 |
| 20260902003038 | 63 | 175 | 0.0 | 5.0 | 0.00 | 0.00 | 0.00 | 77 | 1010.0 |
| 20260902001552 | 64 | 219 | 1.0 | 4.0 | 0.00 | 0.00 | 0.00 | 77 | 1010.0 |
| 20260902000037 | 65 | 180 | 1.0 | 9.0 | 0.00 | 0.00 | 0.00 | 76 | 1010.0 |
| 20260901234533 | 66 | 202 | 0.0 | 6.0 | 0.00 | 0.00 | 0.00 | 76 | 1010.0 |
| 20260901233035 | 66 | 194 | 2.0 | 7.0 | 0.00 | 0.00 | 0.00 | 75 | 1010.0 |
| 20260901231533 | 67 | 150 | 3.0 | 7.0 | 0.00 | 0.00 | 0.00 | 73 | 1009.9 |
| 20260901230031 | 68 | 217 | 4.0 | 7.0 | 0.00 | 0.00 | 0.00 | 70 | 1009.9 |
| 20260901224530 | 68 | 154 | 2.0 | 10.0 | 0.00 | 0.00 | 0.00 | 69 | 1009.9 |
| 20260901223027 | 67 | 277 | 4.0 | 10.0 | 0.00 | 0.00 | 0.00 | 72 | 1010.0 |
| 20260901221524 | 67 | 161 | 3.0 | 8.0 | 0.00 | 0.00 | 0.00 | 76 | 1010.1 |
| 20260901220023 | 67 | 120 | 3.0 | 12.0 | 0.00 | 0.00 | 0.00 | 75 | 1010.1 |
| 20260901214521 | 66 | 294 | 4.0 | 12.0 | 0.00 | 0.00 | 0.00 | 77 | 1010.3 |
| 20260901213018 | 65 | 243 | 3.0 | 8.0 | 0.00 | 0.00 | 0.00 | 79 | 1010.5 |
| 20260901211518 | 66 | 231 | 2.0 | 11.0 | 0.00 | 0.00 | 0.00 | 78 | 1010.5 |
| 20260901210015 | 65 | 338 | 2.0 | 9.0 | 0.00 | 0.00 | 0.00 | 81 | 1010.6 |
| 20260901204515 | 63 | 211 | 6.0 | 12.0 | 0.00 | 0.00 | 0.00 | 82 | 1010.7 |
| 20260901203018 | 63 | 223 | 0.0 | 8.0 | 0.00 | 0.00 | 0.00 | 83 | 1010.8 |
| 20260901201514 | 62 | 163 | 2.0 | 7.0 | 0.00 | 0.00 | 0.00 | 83 | 1010.9 |
| 20260901200013 | 62 | 176 | 2.0 | 11.0 | 0.00 | 0.00 | 0.00 | 83 | 1010.7 |
| 20260901194513 | 62 | 188 | 3.0 | 8.0 | 0.00 | 0.00 | 0.00 | 83 | 1010.8 |
| 20260901193013 | 63 | 183 | 1.0 | 8.0 | 0.00 | 0.00 | 0.00 | 82 | 1010.9 |
| 20260901191519 | 64 | 196 | 2.0 | 12.0 | 0.00 | 0.00 | 0.00 | 81 | 1010.8 |
| 20260901190010 | 64 | 118 | 4.0 | 9.0 | 0.00 | 0.00 | 0.00 | 80 | 1010.9 |
| 20260901184509 | 65 | 273 | 2.0 | 7.0 | 0.00 | 0.00 | 0.00 | 79 | 1010.9 |
| 20260901183006 | 64 | 318 | 3.0 | 7.0 | 0.00 | 0.00 | 0.00 | 79 | 1010.9 |
| 20260901181504 | 63 | 182 | 2.0 | 9.0 | 0.00 | 0.00 | 0.00 | 80 | 1011.0 |
| 20260901180002 | 63 | 168 | 4.0 | 10.0 | 0.00 | 0.00 | 0.00 | 79 | 1011.0 |
| 20260901174558 | 62 | 199 | 3.0 | 8.0 | 0.00 | 0.00 | 0.00 | 82 | 1011.0 |
| 20260901173102 | 61 | 172 | 3.0 | 6.0 | 0.00 | 0.00 | 0.00 | 82 | 1011.1 |
| 20260901171602 | 60 | 148 | 2.0 | 8.0 | 0.00 | 0.00 | 0.00 | 85 | 1011.2 |
| 20260901170050 | 59 | 142 | 1.0 | 9.0 | 0.00 | 0.00 | 0.00 | 85 | 1011.1 |
| 20260901164549 | 59 | 182 | 1.0 | 7.0 | 0.00 | 0.00 | 0.00 | 86 | 1011.2 |
| 20260901163050 | 59 | 73 | 3.0 | 7.0 | 0.00 | 0.00 | 0.00 | 87 | 1011.2 |
| 20260901161605 | 58 | 200 | 2.0 | 5.0 | 0.00 | 0.00 | 0.00 | 88 | 1011.2 |
| 20260901160054 | 58 | 163 | 0.0 | 3.0 | 0.00 | 0.00 | 0.00 | 89 | 1011.3 |
| 20260901154556 | 57 | 203 | 0.0 | 5.0 | 0.00 | 0.00 | 0.00 | 90 | 1011.3 |
| 20260901153052 | 56 | 180 | 3.0 | 7.0 | 0.00 | 0.00 | 0.00 | 92 | 1011.3 |
| 20260901151546 | 55 | 178 | 0.0 | 2.0 | 0.00 | 0.00 | 0.00 | 93 | 1011.4 |
| 20260901150044 | 55 | 184 | 0.0 | 0.0 | 0.00 | 0.00 | 0.00 | 93 | 1011.2 |
| 20260901144549 | 54 | 184 | 0.0 | 0.0 | 0.00 | 0.00 | 0.00 | 93 | 1011.1 |
| 20260901143047 | 54 | 184 | 0.0 | 0.0 | 0.00 | 0.00 | 0.00 | 93 | 1011.1 |
| 20260901141548 | 54 | 184 | 0.0 | 0.0 | 0.00 | 0.00 | 0.00 | 93 | 1010.9 |
| 20260901140040 | 54 | 184 | 1.0 | 6.0 | 0.00 | 0.00 | 0.00 | 93 | 1010.9 |
| 20260901134540 | 54 | 180 | 3.0 | 5.0 | 0.00 | 0.00 | 0.00 | 92 | 1010.8 |
| 20260901133037 | 54 | 175 | 3.0 | 5.0 | 0.00 | 0.00 | 0.00 | 92 | 1010.4 |
| 20260901131536 | 54 | 170 | 1.0 | 3.0 | 0.00 | 0.00 | 0.00 | 92 | 1010.4 |
| 20260901130035 | 54 | 170 | 0.0 | 4.0 | 0.00 | 0.00 | 0.00 | 92 | 1010.2 |
| 20260901124536 | 54 | 170 | 3.0 | 4.0 | 0.00 | 0.00 | 0.00 | 92 | 1010.3 |
| 20260901123034 | 54 | 184 | 3.0 | 4.0 | 0.00 | 0.00 | 0.00 | 92 | 1010.4 |
| 20260901121536 | 54 | 183 | 3.0 | 4.0 | 0.00 | 0.00 | 0.00 | 92 | 1010.2 |
| 20260901120032 | 54 | 182 | 3.0 | 4.0 | 0.00 | 0.00 | 0.00 | 91 | 1010.4 |
| 20260901114534 | 55 | 135 | 2.0 | 3.0 | 0.00 | 0.00 | 0.00 | 90 | 1010.4 |
| 20260901113028 | 55 | 135 | 2.0 | 3.0 | 0.00 | 0.00 | 0.00 | 89 | 1010.5 |
| 20260901111527 | 56 | 135 | 1.0 | 3.0 | 0.00 | 0.00 | 0.00 | 89 | 1010.5 |
| 20260901110026 | 57 | 135 | 0.0 | 0.0 | 0.00 | 0.00 | 0.00 | 89 | 1010.4 |
| 20260901104524 | 56 | 135 | 0.0 | 0.0 | 0.00 | 0.00 | 0.00 | 89 | 1010.4 |
| 20260901103023 | 56 | 135 | 2.0 | 3.0 | 0.00 | 0.00 | 0.00 | 87 | 1010.5 |
| 20260901101521 | 57 | 134 | 0.0 | 0.0 | 0.00 | 0.00 | 0.00 | 85 | 1010.5 |
| 20260901100020 | 57 | 134 | 0.0 | 0.0 | 0.00 | 0.00 | 0.00 | 86 | 1010.5 |
| 20260901094525 | 57 | 134 | 0.0 | 0.0 | 0.00 | 0.00 | 0.00 | 85 | 1010.4 |
| 20260901093018 | 57 | 134 | 0.0 | 0.0 | 0.00 | 0.00 | 0.00 | 85 | 1010.4 |
| 20260901091519 | 57 | 134 | 0.0 | 0.0 | 0.00 | 0.00 | 0.00 | 85 | 1010.4 |
| 20260901090014 | 57 | 134 | 0.0 | 0.0 | 0.00 | 0.00 | 0.00 | 85 | 1010.4 |
| 20260901084513 | 58 | 134 | 0.0 | 0.0 | 0.00 | 0.00 | 0.00 | 85 | 1010.3 |
| 20260901083013 | 58 | 134 | 0.0 | 0.0 | 0.00 | 0.00 | 0.00 | 83 | 1010.4 |
| 20260901081511 | 58 | 134 | 0.0 | 3.0 | 0.00 | 0.00 | 0.00 | 83 | 1010.3 |
| 20260901080015 | 58 | 134 | 0.0 | 0.0 | 0.00 | 0.00 | 0.00 | 83 | 1010.3 |
| 20260901074508 | 59 | 135 | 0.0 | 0.0 | 0.00 | 0.00 | 0.00 | 82 | 1010.2 |
| 20260901073005 | 59 | 135 | 0.0 | 0.0 | 0.00 | 0.00 | 0.00 | 81 | 1010.1 |
| 20260901071505 | 59 | 135 | 0.0 | 0.0 | 0.00 | 0.00 | 0.00 | 81 | 1010.2 |
| 20260901070002 | 59 | 135 | 0.0 | 0.0 | 0.00 | 0.00 | 0.00 | 81 | 1010.3 |
| 20260901064506 | 59 | 135 | 0.0 | 2.0 | 0.00 | 0.00 | 0.00 | 81 | 1010.4 |
| 20260901063002 | 59 | 135 | 2.0 | 3.0 | 0.00 | 0.00 | 0.00 | 81 | 1010.5 |
| 20260901061502 | 60 | 135 | 0.0 | 0.0 | 0.00 | 0.00 | 0.00 | 81 | 1010.5 |
| 20260901060000 | 60 | 134 | 0.0 | 0.0 | 0.00 | 0.00 | 0.00 | 81 | 1010.4 |
| 20260901054601 | 60 | 135 | 0.0 | 3.0 | 0.00 | 0.00 | 0.00 | 81 | 1010.5 |
| 20260901053105 | 59 | 134 | 1.0 | 3.0 | 0.00 | 0.00 | 0.00 | 81 | 1010.5 |
| 20260901051601 | 60 | 134 | 0.0 | 3.0 | 0.00 | 0.00 | 0.00 | 80 | 1010.4 |
| 20260901050059 | 60 | 92 | 1.0 | 5.0 | 0.00 | 0.00 | 0.00 | 79 | 1010.4 |
| 20260901044604 | 61 | 80 | 0.0 | 2.0 | 0.00 | 0.00 | 0.00 | 77 | 1010.3 |